Flag for U.S.A. Weather past 2 weeks in Jefferson City, Missouri, U.S.A.

Now
90 °F

Scattered clouds.


Feels Like: 93 °F
Forecast: 69 / 91 °F
Wind: N/A

Location: Jefferson City Memorial Airport

Current Time: Sep 3, 2015 at 2:39:33 PM

Latest Report: Sep 3, 2015 at 1:53 PM


Visibility: 10 mi

Pressure: 29.91 "Hg

Humidity: 45%

Dew point: 66 °F

Location of Jefferson CityLocation

Historic Weather in Jefferson City — Graph

°F

Jefferson City temperature yesterday

Maximum temperature yesterday: 89 °F (at 5:53 PM)
Minimum temperature yesterday: 70 °F (at 5:53 AM)
Average temperature yesterday: 79 °F

Past Weeks' High & Low Weather Summary

 TemperatureHumidityPressure
High92 °F (Aug 31, 3:53 PM)100% (Aug 25, 6:53 AM)30.19 "Hg (Aug 25, 6:53 AM)
Low52 °F (Aug 24, 5:53 AM)30% (Aug 24, 3:53 PM)29.81 "Hg (Aug 19, 12:53 PM)
Average72 °F72%30.00 "Hg
* Reported Aug 19 12:53 PM — Sep 3 12:53 PM, Jefferson City, Weather by CustomWeather, © 2015

Note: Actual official high and low records may vary slightly from our data, if they occured in-between our weather recording intervals... More about our weather records

Advertising

Jefferson City weather history for previous 24 hours

 ConditionsComfort  
Time TempWeatherWind HumidityBarometerVisibility
12:53 PM
Thu, Sep 3
89 °FSunny.5 mph50%29.93 "Hg10 mi
11:53 AM85 °FSunny.5 mph59%29.96 "Hg10 mi
10:53 AM79 °FSunny.6 mph69%29.97 "Hg10 mi
9:53 AM77 °FPassing clouds.5 mph74%29.97 "Hg9 mi
8:53 AM74 °FSunny.5 mph85%29.96 "Hg8 mi
7:53 AM73 °FPassing clouds.6 mph84%29.97 "Hg9 mi
6:53 AM72 °FClear.5 mph84%29.95 "Hg10 mi
5:53 AM72 °FClear.3 mph87%29.93 "Hg10 mi
4:53 AM71 °FClear.3 mph87%29.93 "Hg10 mi
3:53 AM69 °FClear.6 mph93%29.93 "Hg8 mi
2:53 AM69 °FClear.3 mph90%29.93 "Hg9 mi
1:53 AM70 °FClear.No wind87%29.94 "Hg10 mi
12:53 AM71 °FClear.No wind84%29.94 "Hg10 mi
11:53 PM
Wed, Sep 2
73 °FClear.3 mph81%29.94 "Hg10 mi
10:53 PM75 °FClear.No wind74%29.94 "Hg10 mi
9:53 PM76 °FClear.3 mph72%29.94 "Hg10 mi
8:53 PM79 °FClear.5 mph62%29.93 "Hg10 mi
7:53 PM82 °FSunny.5 mph63%29.92 "Hg10 mi
6:53 PM87 °FSunny.6 mph51%29.91 "Hg10 mi
5:53 PM89 °FSunny.7 mph45%29.91 "Hg10 mi
4:53 PM88 °FSunny.9 mph48%29.91 "Hg10 mi
3:53 PM88 °FSunny.8 mph50%29.93 "Hg10 mi
2:53 PM88 °FPassing clouds.8 mph46%29.95 "Hg10 mi
Weather by CustomWeather, © 2015

See weather overviewHow to use our weather pages